Fargo, ND

6:11 PM CDT on October 13, 2019 (GMT -0500)
Hector International

Weather History for KFAR - August, 2019

Change the Weather History Date:

Saturday, August 17, 2019

  Actual Average Record
Temperature  
Mean Temperature 72 °F 70 °F  
Max Temperature 82 °F 82 °F 98 °F (1945)
Min Temperature 61 °F 58 °F 33 °F (1888)
Degree Days  
Heating Degree Days 0 1  
Month to date heating degree days 9 13  
Since 1 June heating degree days 73 102  
Since 1 July heating degree days 15 29  
Cooling Degree Days 7 5  
Month to date cooling degree days 78 107  
Year to date cooling degree days 456 447  
Since 1 June cooling degree days 446 416  
Growing Degree Days 22 (Base 50)    
Moisture  
Dew Point 63 °F    
Average Humidity 74    
Maximum Humidity 90    
Minimum Humidity 58    
Precipitation  
Precipitation 0.09 in 0.08 in 3.11 in (2005)
Month to date precipitation 2.24 1.25  
Year to date precipitation 18.58 14.72  
Snow  
Snow 0.00 in 0.00 in 0.00 in ()
Month to date snowfall 0.0 0.0  
Since 1 June snowfall 0.0 0.0  
Since 1 July snowfall 0.0 0.0  
Snow Depth 0.00 in    
Sea Level Pressure  
Sea Level Pressure 29.70 in    
Wind  
Wind Speed 9 mph (SSW)    
Max Wind Speed 22 mph    
Max Gust Speed 29 mph    
Visibility 10 miles    
Events Rain , Thunderstorm    
T = Trace of Precipitation, MM = Missing Value Source: NWS Daily Summary

Daily Weather History Graph

Daily Weather History Graph

Search for Another Location

Airport or City:

Astronomy

Aug. 17, 2019 Rise Set
Actual Time 6:27 AM CDT 8:34 PM CDT
Civil Twilight 5:53 AM CDT 9:07 PM CDT
Nautical Twilight 5:12 AM CDT 9:48 PM CDT
Astronomical Twilight 4:26 AM CDT 10:34 PM CDT
Moon 9:56 PM CDT (8/17) 8:20 AM CDT (8/17)
Length of Visible Light 15h 13m
Length of Day
14h 07m
Waning Gibbous, 96% of the Moon is Illuminated
Aug 17
Waning Gibbous
Aug 23
Last Quarter
Aug 30
New
Sep 5
First Quarter
Sep 13
Full

Hourly Weather History & Observations

Time (CDT) Temp. Heat Index Dew Point Humidity Pressure Visibility Wind Dir Wind Speed Gust Speed Precip Events Conditions
12:53 AM 64.9 °F - 61.0 °F 87% 29.75 in 10.0 mi South 9.2 mph - N/A   Clear
1:53 AM 64.9 °F - 60.1 °F 84% 29.74 in 10.0 mi South 9.2 mph - N/A   Clear
2:53 AM 64.9 °F - 59.0 °F 81% 29.72 in 10.0 mi South 9.2 mph - N/A   Clear
3:53 AM 64.0 °F - 59.0 °F 84% 29.70 in 10.0 mi SSE 8.1 mph - N/A   Clear
4:53 AM 63.0 °F - 59.0 °F 87% 29.69 in 10.0 mi SSE 8.1 mph - N/A   Clear
5:53 AM 62.1 °F - 59.0 °F 90% 29.67 in 10.0 mi SSE 8.1 mph - N/A   Clear
6:53 AM 62.1 °F - 59.0 °F 90% 29.69 in 10.0 mi SSE 9.2 mph - N/A   Clear
7:53 AM 64.0 °F - 60.1 °F 87% 29.71 in 10.0 mi SSE 11.5 mph - N/A   Clear
8:53 AM 66.9 °F - 63.0 °F 87% 29.71 in 10.0 mi South 5.8 mph - N/A   Scattered Clouds
9:53 AM 70.0 °F - 64.0 °F 81% 29.71 in 10.0 mi Calm Calm - 0.00 in Rain Light Rain
10:41 AM 69.1 °F - 64.9 °F 87% 29.75 in 10.0 mi Calm Calm - 0.01 in Rain Light Rain
10:51 AM 69.8 °F - 64.4 °F 83% 29.74 in 10.0 mi SE 3.5 mph - 0.01 in Rain Light Rain
10:53 AM 69.1 °F - 66.0 °F 90% 29.73 in 10.0 mi Calm Calm - 0.01 in Rain Light Rain
11:00 AM 71.1 °F - 66.9 °F 87% 29.74 in 10.0 mi Variable 3.5 mph - 0.00 in Thunderstorm Mostly Cloudy
11:25 AM 69.1 °F - 64.9 °F 87% 29.74 in 10.0 mi South 8.1 mph - 0.01 in Rain , Thunderstorm Light Thunderstorms and Rain
11:53 AM 71.1 °F - 69.1 °F 93% 29.72 in 10.0 mi ESE 5.8 mph - 0.08 in Thunderstorm Thunderstorm
12:01 PM 71.1 °F - 66.9 °F 87% 29.72 in 10.0 mi ESE 5.8 mph - N/A   Mostly Cloudy
12:53 PM 77.0 °F - 68.0 °F 74% 29.69 in 10.0 mi South 8.1 mph - N/A   Clear
1:53 PM 80.1 °F 82.1 °F 66.0 °F 62% 29.67 in 10.0 mi SSW 12.7 mph - N/A   Clear
2:53 PM 80.1 °F 82.1 °F 66.0 °F 62% 29.66 in 10.0 mi South 10.4 mph 17.3 mph N/A   Scattered Clouds
3:53 PM 78.1 °F - 63.0 °F 60% 29.66 in 10.0 mi SSW 6.9 mph - N/A   Scattered Clouds
4:24 PM 79.0 °F - 68.0 °F 69% 29.66 in 10.0 mi West 6.9 mph - N/A Thunderstorm Scattered Clouds
4:41 PM 82.0 °F 84.5 °F 66.9 °F 60% 29.65 in 10.0 mi West 8.1 mph - N/A   Partly Cloudy
4:53 PM 79.0 °F - 66.0 °F 64% 29.65 in 10.0 mi WNW 19.6 mph 26.5 mph N/A   Scattered Clouds
5:07 PM 73.9 °F - 66.0 °F 76% 29.66 in 10.0 mi NNW 19.6 mph 28.8 mph N/A   Mostly Cloudy
5:53 PM 72.0 °F - 60.1 °F 66% 29.68 in 10.0 mi NNW 13.8 mph - N/A   Clear
6:53 PM 68.0 °F - 63.0 °F 84% 29.68 in 10.0 mi NNW 6.9 mph - 0.00 in Rain Light Rain
7:53 PM 68.0 °F - 63.0 °F 84% 29.71 in 10.0 mi North 4.6 mph - 0.00 in   Partly Cloudy
8:53 PM 66.9 °F - 62.1 °F 84% 29.71 in 10.0 mi North 4.6 mph - N/A   Overcast
9:53 PM 66.0 °F - 57.9 °F 75% 29.74 in - NNW 13.8 mph - N/A   Overcast
10:53 PM 63.0 °F - 57.0 °F 81% 29.73 in 10.0 mi NW 11.5 mph - N/A   Clear
11:53 PM 61.0 °F - 57.0 °F 87% 29.74 in 10.0 mi NNW 8.1 mph - 0.00 in   Clear